SQ6ELQ-11 Weather Reports


time (UTC)temp
C
wind
direction
speed
KPH
gust
KPH
rain 1hr
cm
rain 24hr
cm
rain mn
cm
humidity
%
barometer
mb
20260506165426 15 0 0.0 0.0 0.00 0.00 0.00 60 1006.1
20260506163646 15 0 0.0 0.0 0.00 0.00 0.00 59 1006.4
20260506161824 18 0 0.0 0.0 0.00 0.00 0.00 55 1006.7
20260506154126 18 0 0.0 0.0 0.00 0.00 0.00 34 1006.7
20260506152311 22 0 0.0 0.0 0.00 0.00 0.00 27 1006.6
20260506150516 22 0 0.0 0.0 0.00 0.00 0.00 27 1006.4
20260506144627 22 0 0.0 0.0 0.00 0.00 0.00 28 1006.5
20260506143001 22 0 0.0 0.0 0.00 0.00 0.00 27 1006.5
20260506141131 22 0 0.0 0.0 0.00 0.00 0.00 27 1006.6
20260506135350 23 0 0.0 0.0 0.00 0.00 0.00 26 1006.8
20260506133649 20 0 0.0 0.0 0.00 0.00 0.00 33 1007.1
20260506131925 20 0 0.0 0.0 0.00 0.00 0.00 34 1007.3
20260506130125 21 0 0.0 0.0 0.00 0.00 0.00 36 1007.2
20260506124518 21 0 0.0 0.0 0.00 0.00 0.00 36 1007.3
20260506122536 20 0 0.0 0.0 0.00 0.00 0.00 37 1007.5
20260506120606 19 0 0.0 0.0 0.00 0.00 0.00 40 1007.5
20260506114633 18 0 0.0 0.0 0.00 0.00 0.00 40 1007.3
20260506112820 18 0 0.0 0.0 0.00 0.00 0.00 41 1007.3
20260506111043 17 0 0.0 0.0 0.00 0.00 0.00 43 1007.4
20260506105326 17 0 0.0 0.0 0.00 0.00 0.00 44 1007.5
20260506103536 17 0 0.0 0.0 0.00 0.00 0.00 46 1007.4
20260506101744 16 0 0.0 0.0 0.00 0.00 0.00 46 1007.5
20260506100018 16 0 0.0 0.0 0.00 0.00 0.00 45 1007.4
20260506094201 16 0 0.0 0.0 0.00 0.00 0.00 47 1007.4
20260506092350 15 0 0.0 0.0 0.00 0.00 0.00 50 1007.4
20260506090450 15 0 0.0 0.0 0.00 0.00 0.00 50 1007.3
20260506084636 16 0 0.0 0.0 0.00 0.00 0.00 51 1007.2
20260506082906 15 0 0.0 0.0 0.00 0.00 0.00 52 1007.0
20260506081155 15 0 0.0 0.0 0.00 0.00 0.00 53 1006.9
20260506073511 14 0 0.0 0.0 0.00 0.00 0.00 56 1006.8
20260506071646 13 0 0.0 0.0 0.00 0.00 0.00 57 1006.6
20260506062056 13 0 0.0 0.0 0.00 0.00 0.00 59 1006.6
20260506060125 13 0 0.0 0.0 0.00 0.00 0.00 61 1006.3
20260506051013 12 0 0.0 0.0 0.00 0.00 0.00 63 1005.7
20260506043520 12 0 0.0 0.0 0.00 0.00 0.00 64 1005.6
20260506041806 12 0 0.0 0.0 0.00 0.00 0.00 63 1005.4
20260506035911 12 0 0.0 0.0 0.00 0.00 0.00 61 1005.3
20260506034103 12 0 0.0 0.0 0.00 0.00 0.00 59 1005.5
20260506032226 12 0 0.0 0.0 0.00 0.00 0.00 60 1005.4
20260506030506 12 0 0.0 0.0 0.00 0.00 0.00 61 1005.5
20260506024541 11 0 0.0 0.0 0.00 0.00 0.00 64 1005.4
20260506022901 11 0 0.0 0.0 0.00 0.00 0.00 64 1005.4
20260506021201 12 0 0.0 0.0 0.00 0.00 0.00 65 1005.6
20260506015451 12 0 0.0 0.0 0.00 0.00 0.00 64 1006.3
20260506013541 12 0 0.0 0.0 0.00 0.00 0.00 63 1006.3
20260506011831 11 0 0.0 0.0 0.00 0.00 0.00 69 1006.3
20260506010025 11 0 0.0 0.0 0.00 0.00 0.00 66 1006.2
20260506004236 11 0 0.0 0.0 0.00 0.00 0.00 66 1006.2
20260506002311 11 0 0.0 0.0 0.00 0.00 0.00 66 1006.1
20260506000541 11 0 0.0 0.0 0.00 0.00 0.00 68 1006.4
20260505234848 11 0 0.0 0.0 0.00 0.00 0.00 66 1006.7
20260505233201 11 0 0.0 0.0 0.00 0.00 0.00 66 1006.8
20260505231321 11 0 0.0 0.0 0.00 0.00 0.00 67 1006.5
20260505225515 11 0 0.0 0.0 0.00 0.00 0.00 66 1006.6
20260505223721 12 0 0.0 0.0 0.00 0.00 0.00 66 1006.7
20260505222030 12 0 0.0 0.0 0.00 0.00 0.00 66 1006.9
20260505220211 12 0 0.0 0.0 0.00 0.00 0.00 65 1007.1
20260505214436 12 0 0.0 0.0 0.00 0.00 0.00 63 1007.2
20260505212653 12 0 0.0 0.0 0.00 0.00 0.00 63 1007.3
20260505211021 12 0 0.0 0.0 0.00 0.00 0.00 64 1007.4
20260505205207 13 0 0.0 0.0 0.00 0.00 0.00 62 1007.7
20260505203306 13 0 0.0 0.0 0.00 0.00 0.00 61 1007.6
20260505201431 14 0 0.0 0.0 0.00 0.00 0.00 59 1007.6
20260505195801 14 0 0.0 0.0 0.00 0.00 0.00 59 1007.6
20260505193941 15 0 0.0 0.0 0.00 0.00 0.00 59 1007.5
20260505192151 15 0 0.0 0.0 0.00 0.00 0.00 58 1007.6
20260505190426 15 0 0.0 0.0 0.00 0.00 0.00 57 1007.7
20260505184705 15 0 0.0 0.0 0.00 0.00 0.00 57 1007.6
20260505183015 16 0 0.0 0.0 0.00 0.00 0.00 54 1007.7
20260505181316 16 0 0.0 0.0 0.00 0.00 0.00 53 1007.7
20260505175551 16 0 0.0 0.0 0.00 0.00 0.00 52 1007.8
20260505173645 17 0 0.0 0.0 0.00 0.00 0.00 52 1008.0
20260505171813 18 0 0.0 0.0 0.00 0.00 0.00 50 1007.7
20260505165921 18 0 0.0 0.0 0.00 0.00 0.00 44 1007.5